User: anonymous   Login
Location: *
(42.5628°N, 2.3633°E)
Time: 02:38:09
(UTC+00:00)
Language:

STARLINK-1105 - Orbit

View from above orbital plane
View from above orbital plane
View from above satellite
View from above satellite

Ground track
Ground track

The orbit data is extracted from the following two-line orbital elements,

1 45218U 20012AS  20192.91667824  .00018240  00000-0  12683-2 0  9999
2 45218  53.0002 289.2013 0001282 110.1477 313.7867 15.05564420 22811
Epoch (UTC): 10 July 2020 22:00:01
Eccentricity: 0.0001282
inclination: 53.0002°
perigee height: 549 km
apogee height: 550 km
right ascension of ascending node: 289.2013°
argument of perigee: 110.1477°
revolutions per day: 15.05564420
mean anomaly at epoch: 313.7867°
orbit number at epoch: 2281

The dashed part of the orbit path shows where the satellite is in the earth's shadow,  

DLR